Location: Audinghen
(50.8518°N, 1.6129°E)
Time: 06:33:16
(UTC+00:00)

Cosmos 1943 - Pass Details

Date: 07 August 2020
Orbit: 834 x 849 km, 71.0° (Epoch: 23 September)

Event Time Altitude Azimuth Distance (km) Brightness Sun altitude
Rises 03:03:26 0° 330° (NNW) 3,394 6.6 -11.7°
Reaches altitude 10° 03:05:53 10° 332° (NNW) 2,456 5.8 -11.4°
Maximum altitude 03:11:32 79° 59° (ENE) 857 3.4 -10.8°
Drops below altitude 10° 03:17:09 10° 147° (SSE) 2,444 5.5 -10.1°
Sets 03:19:35 0° 148° (SSE) 3,376 6.2 -9.9°
